Back to catalog

STARLINK-38104

AliveCommunicationsSSO
NORAD 100185·PAYLOAD·🇺🇸 United States

Launched Aug 1, 2026 from Vandenberg Space Force Base

Loading…

Next Passes (next 24 hours)

TLE

FreshSource: Space-Track

Epoch: Sep 14, 2026, 12:31 UTC

1 A0185U 26175G   26257.52172703  .00262320  00000-0  16991-2 0  9997
2 A0185  97.2820  99.6376 0001803 115.3338 244.8114 15.75284479  8239

Track STARLINK-38104 in real time with AllMySat

Download on the App Store